DW2513 Weather Reports


Display with metric or nautical units.
time (UTC)temp
F
wind
direction
speed
MPH
gust
MPH
rain 1hr
in
rain 24hr
in
rain mn
in
humidity
%
barometer
mb
20260903002805 67 159 0.0 0.0 0.00 0.01 0.00 68 1014.2
20260903001805 67 159 0.0 0.0 0.00 0.01 0.00 70 1014.2
20260903000804 67 159 0.0 0.0 0.00 0.01 0.00 71 1014.2
20260902235804 67 159 0.0 0.0 0.00 0.01 0.00 71 1014.2
20260902233804 67 159 0.0 0.0 0.00 0.01 0.00 72 1014.5
20260902232804 66 159 0.0 0.0 0.00 0.01 0.00 73 1014.8
20260902230304 66 159 0.0 0.0 0.00 0.02 0.00 75 1016.0
20260902224304 67 159 0.0 0.0 0.00 0.02 0.00 72 1016.2
20260902223304 67 159 0.0 0.0 0.00 0.02 0.00 71 1016.2
20260902222805 67 159 0.0 0.0 0.00 0.02 0.00 71 1016.3
20260902221304 68 159 0.0 0.0 0.00 0.03 0.00 70 1016.3
20260902220304 68 159 0.0 0.0 0.00 0.03 0.00 69 1016.3
20260902215804 68 159 0.0 0.0 0.00 0.03 0.00 69 1016.3
20260902212805 68 159 0.0 0.0 0.00 0.03 0.00 68 1016.3
20260902211305 68 159 0.0 0.0 0.00 0.03 0.00 68 1016.3
20260902210804 68 159 0.0 0.0 0.00 0.03 0.00 68 1016.3
20260902205306 69 159 0.0 0.0 0.00 0.03 0.00 67 1016.3
20260902203804 69 159 0.0 0.0 0.00 0.03 0.00 67 1016.3
20260902203305 69 159 0.0 0.0 0.00 0.03 0.00 67 1016.3
20260902202805 69 159 0.0 0.0 0.00 0.03 0.00 67 1016.3
20260902202306 69 159 0.0 0.0 0.00 0.03 0.00 67 1016.6
20260902200804 69 159 0.0 0.0 0.00 0.04 0.00 67 1016.9
20260902194804 69 159 0.0 0.0 0.00 0.04 0.00 66 1016.9
20260902194304 69 155 0.0 1.0 0.00 0.04 0.00 65 1016.9
20260902192307 68 148 0.0 0.0 0.00 0.04 0.00 67 1017.3
20260902190804 68 148 0.0 0.0 0.00 0.04 0.00 68 1017.3
20260902190305 68 148 0.0 0.0 0.00 0.04 0.00 68 1017.5
20260902183304 67 212 0.0 0.0 0.00 0.04 0.00 67 1017.5
20260902182804 67 212 0.0 0.0 0.00 0.04 0.00 67 1017.5
20260902181804 67 212 0.0 0.0 0.00 0.04 0.00 68 1017.5
20260902181305 66 252 0.0 1.0 0.00 0.04 0.00 69 1017.7
20260902180805 66 324 0.0 0.0 0.00 0.04 0.00 72 1017.7
20260902174804 64 327 0.0 0.0 0.00 0.04 0.00 85 1017.7
20260902173804 64 327 0.0 0.0 0.00 0.04 0.00 86 1017.7
20260902173304 64 327 0.0 0.0 0.00 0.04 0.00 86 1017.7
20260902172805 64 327 0.0 0.0 0.00 0.04 0.00 86 1017.7
20260902171305 64 327 0.0 0.0 0.00 0.04 0.00 86 1017.8
20260902170805 64 327 0.0 0.0 0.00 0.04 0.00 86 1017.8
20260902165805 64 327 0.0 0.0 0.00 0.04 0.00 86 1017.8
20260902165308 64 327 0.0 0.0 0.00 0.04 0.00 86 1017.8
20260902164305 64 327 0.0 0.0 0.00 0.04 0.00 86 1017.8
20260902163304 64 327 0.0 0.0 0.00 0.04 0.00 86 1017.8
20260902162307 64 327 0.0 0.0 0.00 0.04 0.00 86 1017.7
20260902161304 64 327 0.0 0.0 0.00 0.04 0.00 86 1018.5
20260902160805 64 327 0.0 0.0 0.00 0.04 0.00 86 1018.5
20260902160305 64 327 0.0 0.0 0.00 0.04 0.00 87 1018.5
20260902154804 64 327 0.0 0.0 0.00 0.04 0.00 86 1018.5
20260902153304 65 327 0.0 0.0 0.00 0.04 0.00 87 1018.5
20260902152307 64 327 0.0 0.0 0.00 0.04 0.00 88 1018.5
20260902151805 64 327 0.0 0.0 0.00 0.04 0.00 88 1018.5
20260902151304 64 327 0.0 0.0 0.00 0.04 0.00 88 1018.8
20260902150805 64 327 0.0 0.0 0.00 0.04 0.00 88 1018.8
20260902144805 63 328 0.0 0.0 0.00 0.04 0.00 89 1018.8
20260902144304 63 328 0.0 0.0 0.00 0.04 0.00 90 1018.4
20260902142805 64 328 0.0 0.0 0.00 0.05 0.00 91 1018.4
20260902142306 64 328 0.0 0.0 0.00 0.05 0.00 91 1018.4
20260902141804 63 328 0.0 0.0 0.00 0.05 0.00 91 1018.0
20260902141305 63 329 0.0 0.0 0.00 0.05 0.00 91 1018.0
20260902140804 64 329 0.0 0.0 0.00 0.05 0.00 91 1018.0
20260902140305 63 332 0.0 0.0 0.00 0.05 0.00 91 1018.0
20260902135306 63 332 0.0 0.0 0.00 0.05 0.00 91 1018.0
20260902134304 63 332 0.0 0.0 0.00 0.05 0.00 91 1018.0
20260902133305 63 332 0.0 0.0 0.00 0.05 0.00 91 1018.0
20260902132804 63 332 0.0 0.0 0.00 0.05 0.00 91 1018.0
20260902131304 63 332 0.0 0.0 0.00 0.05 0.00 91 1018.1
20260902130305 62 332 0.0 0.0 0.00 0.06 0.00 91 1018.1
20260902125804 62 332 0.0 0.0 0.00 0.06 0.00 91 1018.1
20260902122805 61 332 0.0 0.0 0.00 0.10 0.00 91 1018.1
20260902121305 61 332 0.0 0.0 0.00 0.12 0.00 91 1018.3
20260902120804 61 332 0.0 0.0 0.00 0.13 0.00 91 1018.3
20260902120305 61 332 0.0 0.0 0.00 0.14 0.00 91 1018.3
20260902114304 61 332 0.0 0.0 0.00 0.17 0.00 91 1018.3
20260902110805 60 332 0.0 0.0 0.00 0.22 0.00 90 1018.3
20260902110305 60 332 0.0 0.0 0.00 0.23 0.00 90 1017.9
20260902105306 60 332 0.0 0.0 0.00 0.24 0.00 91 1017.9
20260902104304 61 332 0.0 0.0 0.00 0.26 0.00 91 1017.9
20260902103805 61 332 0.0 0.0 0.00 0.27 0.00 90 1017.9
20260902103304 61 332 0.0 0.0 0.00 0.27 0.00 91 1017.9
20260902102307 61 332 0.0 0.0 0.00 0.27 0.00 91 1017.7
20260902100305 61 332 0.0 0.0 0.00 0.27 0.00 91 1017.7
20260902094805 61 332 0.0 0.0 0.00 0.27 0.00 90 1017.5
20260902094305 61 332 0.0 0.0 0.00 0.27 0.00 90 1017.5
20260902093305 61 332 0.0 0.0 0.00 0.27 0.00 90 1017.5
20260902092804 61 332 0.0 0.0 0.00 0.27 0.00 90 1017.5
20260902091804 62 332 0.0 0.0 0.00 0.27 0.00 90 1017.6
20260902091305 62 332 0.0 0.0 0.00 0.27 0.00 91 1017.3
20260902090304 62 332 0.0 0.0 0.00 0.27 0.00 91 1017.3
20260902084305 62 332 0.0 0.0 0.00 0.27 0.00 90 1017.3
20260902083805 62 332 0.0 0.0 0.00 0.27 0.00 91 1017.3
20260902083305 62 332 0.0 0.0 0.00 0.27 0.00 91 1017.3
20260902082309 62 332 0.0 0.0 0.00 0.27 0.00 91 1017.3
20260902081804 62 332 0.0 0.0 0.00 0.27 0.00 91 1017.3
20260902081305 62 332 0.0 0.0 0.00 0.27 0.00 91 1017.3
20260902075306 62 332 0.0 0.0 0.00 0.27 0.00 90 1017.5
20260902074304 62 332 0.0 0.0 0.00 0.27 0.00 90 1017.5
20260902073804 62 332 0.0 0.0 0.00 0.27 0.00 90 1017.5
20260902070805 62 332 0.0 0.0 0.00 0.27 0.00 90 1017.5
20260902065805 62 332 0.0 0.0 0.00 0.27 0.00 90 1017.5
20260902064805 62 332 0.0 0.0 0.00 0.27 0.00 90 1017.5
20260902063805 62 332 0.0 0.0 0.00 0.27 0.00 90 1017.1
20260902063304 62 332 0.0 0.0 0.00 0.27 0.00 90 1017.1
20260902060305 62 332 0.0 0.0 0.00 0.27 0.00 90 1017.1
20260902055805 62 332 0.0 0.0 0.00 0.27 0.00 90 1017.1
20260902055307 62 332 0.0 0.0 0.00 0.27 0.00 90 1017.1
20260902054304 62 332 0.0 0.0 0.00 0.27 0.00 90 1016.3
20260902053305 62 332 0.0 0.0 0.00 0.27 0.00 90 1016.3
20260902052306 62 332 0.0 0.0 0.00 0.27 0.00 90 1016.3
20260902051804 62 332 0.0 0.0 0.00 0.27 0.00 90 1016.3
20260902051304 62 332 0.0 0.0 0.00 0.27 0.00 90 1016.3
20260902050305 62 332 0.0 0.0 0.00 0.27 0.00 90 1016.3
20260902045804 62 332 0.0 0.0 0.00 0.27 0.00 90 1016.3
20260902044805 62 332 0.0 0.0 0.00 0.27 0.00 90 1016.3
20260902042308 62 332 0.0 0.0 0.00 0.27 0.00 90 1015.8
20260902041305 62 332 0.0 0.0 0.00 0.27 0.00 90 1015.8
20260902035305 63 332 0.0 0.0 0.00 0.27 0.27 90 1015.8
20260902034805 63 332 0.0 0.0 0.00 0.27 0.27 90 1015.8
20260902032804 63 332 0.0 0.0 0.00 0.27 0.27 90 1015.9
20260902031804 63 332 0.0 0.0 0.00 0.27 0.27 90 1015.7
20260902030305 63 332 0.0 0.0 0.01 0.27 0.27 90 1015.7
20260902025805 63 332 0.0 0.0 0.01 0.27 0.27 90 1015.7
20260902025306 63 332 0.0 0.0 0.01 0.27 0.27 90 1015.7
20260902024805 63 332 0.0 0.0 0.01 0.27 0.27 90 1015.7
20260902023804 63 332 0.0 0.0 0.01 0.27 0.27 90 1015.7
20260902023304 63 332 0.0 0.0 0.01 0.27 0.27 90 1015.7
20260902021805 63 332 0.0 0.0 0.01 0.27 0.27 90 1015.7
20260902021305 63 332 0.0 0.0 0.01 0.27 0.27 90 1015.7
20260902020305 63 332 0.0 0.0 0.00 0.26 0.26 90 1015.7
20260902014304 63 332 0.0 0.0 0.00 0.26 0.26 90 1015.5
20260902013805 63 332 0.0 0.0 0.00 0.26 0.26 90 1015.5
20260902012804 63 332 0.0 0.0 0.00 0.26 0.26 90 1015.5
20260902010804 63 332 0.0 0.0 0.00 0.26 0.26 89 1015.5
20260902005804 63 332 0.0 0.0 0.00 0.26 0.26 89 1015.5
20260902005306 63 332 0.0 0.0 0.00 0.26 0.26 89 1015.5